• In Netherlands
  • List of Countries
  • For 7 days
  • Water Temperature
  • Satellite Maps
  • Weather Map
  • Weather Widgets
  • user-avatar
    Login

    Hourly Weather Armawir

    Today, 20 January, Friday

    Time Temperature Precipitation Wind Pressure Humidity
    00:00 -3°C° 0.1 mm 1 mps 688 mmHg 90%
    01:00 -4°C° 0.1 mm 1 mps 688 mmHg 90%
    02:00 -4°C° 0.1 mm 1 mps 688 mmHg 90%
    03:00 -6°C° 0.1 mm 0 mps 688 mmHg 90%
    04:00 -6°C° 0 mm 0 mps 688 mmHg 90%
    05:00 -7°C° 0 mm 0 mps 688 mmHg 90%
    06:00 -7°C° 0 mm 0 mps 688 mmHg 90%
    07:00 -5°C° 0 mm 0 mps 688 mmHg 88%
    08:00 -3°C° 0 mm 0 mps 689 mmHg 85%
    09:00 -1°C° 0 mm 0 mps 690 mmHg 83%
    10:00 0°C° 0.1 mm 0 mps 690 mmHg 81%
    11:00 +2°C° 0.1 mm 0 mps 690 mmHg 79%
    12:00 +3°C° 0.1 mm 0 mps 689 mmHg 76%
    13:00 +4°C° 0.1 mm 1 mps 689 mmHg 78%
    14:00 +4°C° 0.1 mm 1 mps 689 mmHg 80%
    15:00 +4°C° 0.1 mm 1 mps 688 mmHg 81%
    16:00 +1°C° 0.1 mm 1 mps 688 mmHg 85%
    17:00 -2°C° 0.1 mm 0 mps 688 mmHg 88%
    18:00 -4°C° 0.1 mm 0 mps 687 mmHg 92%
    19:00 -4°C° 0.1 mm 0 mps 688 mmHg 91%
    20:00 -4°C° 0.1 mm 0 mps 688 mmHg 90%
    21:00 -4°C° 0.1 mm 0 mps 688 mmHg 90%
    22:00 -4°C° 0.1 mm 0 mps 688 mmHg 89%
    23:00 -4°C° 0.1 mm 0 mps 688 mmHg 89%

    Tomorrow, 21 January, Saturday

    Time Temperature Precipitation Wind Pressure Humidity
    00:00 -4°C° 0.1 mm 0 mps 688 mmHg 89%
    01:00 -5°C° 0.1 mm 0 mps 688 mmHg 89%
    02:00 -5°C° 0.1 mm 0 mps 688 mmHg 89%
    03:00 -5°C° 0.1 mm 0 mps 688 mmHg 89%
    04:00 -6°C° 0.1 mm 0 mps 688 mmHg 88%
    05:00 -6°C° 0.1 mm 0 mps 688 mmHg 88%
    06:00 -6°C° 0.1 mm 1 mps 688 mmHg 88%
    07:00 -4°C° 0 mm 1 mps 688 mmHg 86%
    08:00 -3°C° 0 mm 1 mps 689 mmHg 83%
    09:00 -2°C° 0 mm 1 mps 689 mmHg 81%
    10:00 0°C° 0 mm 1 mps 689 mmHg 79%
    11:00 +1°C° 0 mm 1 mps 689 mmHg 77%
    12:00 +2°C° 0 mm 1 mps 689 mmHg 75%
    13:00 +2°C° 0 mm 1 mps 688 mmHg 76%
    14:00 +2°C° 0 mm 1 mps 688 mmHg 77%
    15:00 +2°C° 0 mm 1 mps 688 mmHg 78%
    16:00 -1°C° 0 mm 1 mps 687 mmHg 82%
    17:00 -4°C° 0 mm 1 mps 686 mmHg 86%
    18:00 -9°C° 0 mm 0 mps 686 mmHg 90%
    19:00 -9°C° 0 mm 1 mps 686 mmHg 89%
    20:00 -9°C° 0 mm 1 mps 686 mmHg 89%
    21:00 -9°C° 0 mm 1 mps 686 mmHg 88%
    22:00 -9°C° 0 mm 1 mps 687 mmHg 87%
    23:00 -8°C° 0 mm 1 mps 687 mmHg 86%

    Day after tomorrow, 22 January, Sunday

    Time Temperature Precipitation Wind Pressure Humidity
    00:00 -8°C° 0 mm 1 mps 688 mmHg 85%
    01:00 -8°C° 0 mm 1 mps 688 mmHg 83%
    02:00 -8°C° 0 mm 1 mps 688 mmHg 82%
    03:00 -8°C° 0 mm 1 mps 688 mmHg 81%
    04:00 -9°C° 0 mm 2 mps 688 mmHg 81%
    05:00 -9°C° 0 mm 2 mps 688 mmHg 81%
    06:00 -9°C° 0 mm 2 mps 688 mmHg 80%
    07:00 -7°C° 0 mm 2 mps 689 mmHg 79%
    08:00 -6°C° 0 mm 2 mps 689 mmHg 77%
    09:00 -5°C° 0 mm 2 mps 690 mmHg 76%
    10:00 -3°C° 0 mm 2 mps 689 mmHg 74%
    11:00 -2°C° 0 mm 2 mps 689 mmHg 72%
    12:00 -1°C° 0 mm 2 mps 689 mmHg 70%
    13:00 +1°C° 0 mm 2 mps 689 mmHg 70%
    14:00 +1°C° 0 mm 2 mps 689 mmHg 71%
    15:00 +1°C° 0 mm 2 mps 688 mmHg 72%
    16:00 -2°C° 0 mm 2 mps 689 mmHg 75%
    17:00 -4°C° 0 mm 2 mps 689 mmHg 77%
    18:00 -7°C° 0 mm 2 mps 689 mmHg 80%
    19:00 -7°C° 0 mm 2 mps 690 mmHg 79%
    20:00 -7°C° 0 mm 2 mps 690 mmHg 78%
    21:00 -7°C° 0 mm 2 mps 691 mmHg 78%
    22:00 -7°C° 0 mm 2 mps 691 mmHg 77%
    23:00 -8°C° 0 mm 2 mps 692 mmHg 77%

    23 January, Monday

    Time Temperature Precipitation Wind Pressure Humidity
    00:00 -8°C° 0 mm 2 mps 692 mmHg 77%
    01:00 -8°C° 0 mm 2 mps 692 mmHg 77%
    02:00 -8°C° 0 mm 2 mps 693 mmHg 77%
    03:00 -8°C° 0 mm 2 mps 693 mmHg 78%
    04:00 -9°C° 0 mm 2 mps 693 mmHg 78%
    05:00 -9°C° 0 mm 2 mps 694 mmHg 79%
    06:00 -9°C° 0 mm 2 mps 694 mmHg 79%
    07:00 -7°C° 0 mm 1 mps 695 mmHg 78%
    08:00 -4°C° 0 mm 1 mps 696 mmHg 77%
    09:00 -3°C° 0 mm 1 mps 696 mmHg 75%
    10:00 -1°C° 0 mm 1 mps 696 mmHg 73%
    11:00 0°C° 0 mm 1 mps 696 mmHg 70%
    12:00 +1°C° 0 mm 0 mps 696 mmHg 68%
    13:00 +1°C° 0 mm 0 mps 696 mmHg 69%
    14:00 +1°C° 0 mm 0 mps 695 mmHg 70%
    15:00 +2°C° 0 mm 1 mps 695 mmHg 72%
    16:00 -1°C° 0 mm 1 mps 694 mmHg 76%
    17:00 -6°C° 0 mm 1 mps 694 mmHg 80%
    18:00 -9°C° 0 mm 1 mps 693 mmHg 85%
    19:00 -10°C° 0 mm 1 mps 693 mmHg 84%
    20:00 -11°C° 0 mm 1 mps 693 mmHg 84%
    21:00 -11°C° 0 mm 1 mps 693 mmHg 84%
    22:00 -11°C° 0 mm 1 mps 693 mmHg 84%
    23:00 -12°C° 0 mm 1 mps 693 mmHg 83%

    24 January, Tuesday

    Time Temperature Precipitation Wind Pressure Humidity
    00:00 -12°C° 0 mm 1 mps 693 mmHg 83%
    01:00 -12°C° 0 mm 1 mps 693 mmHg 82%
    02:00 -12°C° 0 mm 1 mps 692 mmHg 82%
    03:00 -13°C° 0 mm 1 mps 692 mmHg 81%
    04:00 -13°C° 0 mm 1 mps 692 mmHg 81%
    05:00 -13°C° 0 mm 1 mps 692 mmHg 81%
    06:00 -13°C° 0 mm 1 mps 692 mmHg 80%
    07:00 -10°C° 0 mm 1 mps 693 mmHg 77%
    08:00 -7°C° 0 mm 1 mps 693 mmHg 73%
    09:00 -3°C° 0 mm 1 mps 694 mmHg 70%
    10:00 -1°C° 0 mm 1 mps 694 mmHg 67%
    11:00 +1°C° 0 mm 1 mps 694 mmHg 65%
    12:00 +3°C° 0 mm 1 mps 693 mmHg 63%
    13:00 +3°C° 0 mm 1 mps 693 mmHg 65%
    14:00 +3°C° 0 mm 1 mps 692 mmHg 67%
    15:00 +3°C° 0 mm 1 mps 691 mmHg 69%
    16:00 -1°C° 0 mm 1 mps 691 mmHg 74%
    17:00 -4°C° 0 mm 1 mps 690 mmHg 79%
    18:00 -9°C° 0 mm 1 mps 689 mmHg 83%
    19:00 -9°C° 0 mm 1 mps 689 mmHg 81%
    20:00 -9°C° 0 mm 1 mps 690 mmHg 79%
    21:00 -9°C° 0 mm 1 mps 690 mmHg 77%
    22:00 -9°C° 0 mm 1 mps 690 mmHg 74%
    23:00 -9°C° 0 mm 1 mps 689 mmHg 71%

    25 January, Wednesday

    Time Temperature Precipitation Wind Pressure Humidity
    00:00 -9°C° 0 mm 1 mps 689 mmHg 68%
    01:00 -8°C° 0 mm 1 mps 689 mmHg 66%
    02:00 -8°C° 0 mm 1 mps 689 mmHg 64%
    03:00 -8°C° 0 mm 1 mps 688 mmHg 62%
    04:00 -7°C° 0 mm 1 mps 688 mmHg 61%
    05:00 -6°C° 0 mm 1 mps 688 mmHg 59%
    06:00 -6°C° 0 mm 1 mps 688 mmHg 58%
    07:00 -5°C° 0 mm 2 mps 688 mmHg 58%
    08:00 -3°C° 0 mm 2 mps 688 mmHg 59%
    09:00 -2°C° 0 mm 2 mps 688 mmHg 59%
    10:00 +1°C° 0 mm 2 mps 688 mmHg 60%
    11:00 +2°C° 0 mm 2 mps 687 mmHg 61%
    12:00 +3°C° 0 mm 3 mps 686 mmHg 62%
    13:00 +3°C° 0.1 mm 3 mps 686 mmHg 65%
    14:00 +2°C° 0.1 mm 3 mps 685 mmHg 69%
    15:00 +2°C° 0.1 mm 3 mps 685 mmHg 72%
    16:00 +1°C° 0.1 mm 3 mps 685 mmHg 74%
    17:00 0°C° 0.1 mm 3 mps 685 mmHg 75%
    18:00 -1°C° 0.1 mm 2 mps 685 mmHg 77%
    19:00 -1°C° 0 mm 2 mps 685 mmHg 77%
    20:00 -2°C° 0 mm 2 mps 685 mmHg 77%
    21:00 -2°C° 0 mm 2 mps 685 mmHg 77%
    22:00 -3°C° 0 mm 2 mps 684 mmHg 77%
    23:00 -3°C° 0 mm 2 mps 684 mmHg 77%
    Show more